星链-34778 (STARLINK-34778)

导读

STARLINK-34778是美国于2025年7月30日发射的星链计划卫星,星链是SpaceX打造的大型低轨卫星互联网星座项目,旨在为全球提供高速、低延迟的互联网覆盖服务。该卫星加入星座后,进一步拓展了星链全球网络的覆盖范围,服务更多偏远地区及移动场景用户。

基本信息
目录编号:
65021
目录名称:
STARLINK-34778
国际标识:
2025-161G
轨道中心:
EARTH
卫星名称:
星链-34778
卫星全名:
星链-34778 (STARLINK-34778)
卫星状态:
在轨 (已飞行410 天)
发射日期:
2025-07-30 UTC
国别 :
美国 (US)
星等 :
--
该卫星已列入 空间交会检测服务 Space Conjunction Data Service (SCDS) ,当前飞行风险评估等级: 高风险
轨道信息
数据来源 国际轨道数据
星历时间: 2026-09-13T06:19:27+0800
16小时前
查看轨道信息
半长轴: 6840.729km
偏心率: 0.0001164
轨道倾角: 53.158°
近地点辐角 82.352°
升交点赤经 143.328°
平近点角 277.762°
近地点: 461.795km
远地点: 463.389km
周期: 93.845分钟
每日圈数: 15.344375
详细信息
固有亮度:
5
最大亮度:
2.5
卫星平台:
Starlink V1.0
覆盖范围:
全球
运营商:
太空探索技术公司
运营商所在国:
美国
制造商(研发单位):
太空探索技术公司
制造商所在国:
美国
使用方式:
暂无
卫星简介
Starlink 计划是 SpaceX 推出的全球卫星互联网项目,通过发射低轨道卫星,为全球尤其是偏远地区提供高速、低延迟的互联网服务。自 2019 年起,Starlink 已部署数千颗卫星,旨在缩小全球数字鸿沟,推动互联网普及。该项目还为军事、航空等行业提供通信支持,带来广泛经济效益。
2D轨道图
3D轨道图
轨道高度分析图
轨道倾角分析图
轨道综合分析图
查看轨道综合分析图
交会数据列表
事件ID 空间交会对象 最接近时刻(TCA) 交会距离 交会风险概率(CRP) 交会风险指数(CRI) 操作
CDM_260915-122306-502106-608321
2026-09-15T
12:23:29+0000
0.459 km
远距离
1.326264E-4 高风险 0.77
CDM_260915-173205-228806-502121
2026-09-15T
17:32:58+0000
0.857 km
远距离
3.994463E-5 中风险 0.67
CDM_260915-205606-223206-502121
2026-09-15T
20:56:51+0000
0.799 km
远距离
3.527132E-5 中风险 0.66
CDM_260914-130406-502106-926421
2026-09-14T
13:04:24+0000
0.838 km
远距离
2.239322E-5 中风险 0.62
CDM_260915-161706-502106-608321
2026-09-15T
16:17:57+0000
1.265 km
极远距离
5.659413E-6 低风险 0.5
CDM_260915-230006-448506-502121
2026-09-15T
23:00:41+0000
1.599 km
极远距离
4.804156E-6 低风险 0.49
CDM_260915-224305-420406-502121
2026-09-15T
22:43:55+0000
1.505 km
极远距离
4.332621E-6 低风险 0.48
CDM_260914-090906-502106-926421
2026-09-14T
09:09:56+0000
1.443 km
极远距离
3.562692E-6 低风险 0.46
CDM_260915-030606-502106-826921
2026-09-15T
03:06:26+0000
1.510 km
极远距离
1.980872E-6 低风险 0.41
CDM_260912-153005-316006-502121
2026-09-12T
15:30:55+0000
2.437 km
极远距离
1.428086E-6 低风险 0.38
与全量物体交会距离演化趋势
与全量物体交会风险概率演化趋势